Kapaa, HI (96746)

7:06 PM HST on May 22, 2015 (GMT -1000)
WAILUA HOMESTEADS | | Change Station
CLOSE
Current Station
Personal Weather Station
Location: Kapaa, HI
Elevation: 361 ft
Nearby Weather Stations

Elev 361 ft 22.07 °N, 159.36 °W | Updated 32 seconds ago

Overcast
Overcast
68.2 °F
Feels Like 68.2 °F
N
1.0
Wind Variable Wind from North
Gusts 9.0 mph

Today
High -- | Low -- °F
--% Chance of Precip.
Yesterday
High -- | Low -- °F
Precip. -- in
5:55 AM 7:12 PM
Waxing Crescent, 27% visible
Pressure 30.01 in
Visibility 10.0 miles
Clouds Overcast 3000 ft
Dew Point 66 °F
Humidity 93%
Rainfall 0.20 in
Snow Depth Not available.
UV 0.0 out of 12
Pollen Not available.
Air Quality Not available.
Flu Activity Local Activity
METAR PHLI 230453Z 35011KT 10SM OVC030 22/18 A3001 RMK AO2 SLP160 T02170183

More Conditions Fewer Conditions

Pressure 30.01 in
Visibility 10.0 miles
Clouds Overcast 3000 ft
Dew Point 66 °F
Humidity 93%
Rainfall 0.20 in
Snow Depth Not available.
UV 0.0 out of 12
Pollen Not available.
Air Quality Not available.
Flu Activity Local Activity
METAR PHLI 230453Z 35011KT 10SM OVC030 22/18 A3001 RMK AO2 SLP160 T02170183

More Conditions Fewer Conditions

10-Day Weather Forecast

Almanac

Astronomy

May. 22, 2015 Rise Set
Actual Time
Civil Twilight
Nautical Twilight
Astronomical Twilight
Moon
Length of Visible Light
Length of Day
Tomorrow will be .
, % of the Moon is Illuminated

Today's Extremes

State Highs State Lows

Community

WunderPhotos

Upload Photos

1,823,390 photos uploaded!

WunderBlogs® & News

Nearby

Air Quality

  Air Quality AQ Index Pollutant
Not available.

Snow Depth

Station Depth Elevation

Earthquake Activity

City Distance Mag. Time & Date
Minimum magnitude displayed is 2.5.

Coastal Water Temperatures

Place Temperature

Stations

Nearby Weather Stations

Station Location Temp. Windchill Dew Point Humidity Wind Precip. Elev Updated Type